This is the latest recevied weather packets stored in our database for station/object VK6HGR-1. If no packets are shown the sender has not sent any weather packets the latest 10 day(s).
| Time | Temp. | Humidity | Pressure | Rain* | Wind** | Luminosity | Snow |
|---|---|---|---|---|---|---|---|
| 1777620612 | 18.33° C | 41% | 1019.5 hPa | - | - | - | - |
| 1777619711 | 18.33° C | 42% | 1019.3 hPa | - | - | - | - |
| 1777618815 | 17.78° C | 41% | 1019.3 hPa | - | - | - | - |
| 1777617910 | 18.33° C | 42% | 1019.2 hPa | - | - | - | - |
| 1777617011 | 18.89° C | 41% | 1019.2 hPa | - | - | - | - |
| 1777616117 | 18.89° C | 41% | 1019.2 hPa | - | - | - | - |
| 1777615215 | 19.44° C | 41% | 1019.2 hPa | - | - | - | - |
| 1777614314 | 18.89° C | 43% | 1019.2 hPa | - | - | - | - |
| 1777613413 | 18.33° C | 44% | 1019.2 hPa | - | - | - | - |
| 1777612513 | 18.33° C | 44% | 1019.5 hPa | - | - | - | - |
| 1777611611 | 17.78° C | 46% | 1019.6 hPa | - | - | - | - |
| 1777610711 | 17.78° C | 47% | 1019.8 hPa | - | - | - | - |
| 1777609811 | 17.78° C | 46% | 1019.9 hPa | - | - | - | - |
| 1777608915 | 17.78° C | 46% | 1020 hPa | - | - | - | - |
| 1777608012 | 17.22° C | 48% | 1020.3 hPa | - | - | - | - |
| 1777607114 | 17.78° C | 48% | 1020.3 hPa | - | - | - | - |
| 1777606213 | 17.22° C | 49% | 1020.4 hPa | - | - | - | - |
| 1777605311 | 17.22° C | 50% | 1020.5 hPa | - | - | - | - |
| 1777604413 | 16.67° C | 51% | 1020.6 hPa | - | - | - | - |
| 1777603511 | 16.11° C | 51% | 1020.6 hPa | - | - | - | - |
| 1777602611 | 15.56° C | 53% | 1020.6 hPa | - | - | - | - |
| 1777601716 | 15.56° C | 53% | 1020.5 hPa | - | - | - | - |
| 1777600811 | 15° C | 55% | 1020.4 hPa | - | - | - | - |
| 1777599912 | 15° C | 57% | 1020.4 hPa | - | - | - | - |
| 1777599011 | 15° C | 55% | 1020.5 hPa | - | - | - | - |
* Rain since midnight (hover to see other rain measurements)
** Current wind speed in m/s (hover to see current wind gust speed)